Regional Weather Roundup
Issued by NWS Bismarck, ND

Home | Current Version | Previous Version | Text Only | Print | Product List | Glossary On
Versions: 1 2 3 4 5 6 7 8 9 10 11 12 13 14 15 16 17 18 19 20 21 22 23 24 25 26 27 28 29 30 31 32 33 34 35 36 37 38 39 40 41 42 43 44 45 46 47 48 49 50
823
ASUS43 KBIS 240010
RWRBIS

NWR BROADCAST TEXT
NATIONAL WEATHER SERVICE BISMARCK ND
700 PM CDT FRI JUN 23 2017

NOTE: "FAIR" INDICATES FEW OR NO CLOUDS BELOW 12,000 FEET WITH NO
SIGNIFICANT WEATHER AND/OR OBSTRUCTIONS TO VISIBILITY.


CITY           SKY/WX    TMP DP  RH WIND       PRES   REMARKS
WILLISTON      CLOUDY    66  32  28 NW17G28   30.12S
MINOT          MOSUNNY   62  34  35 NW26G36   30.05S
MINOT AFB      MOSUNNY   62  35  37 NW24G31   30.04S
BISMARCK       MOSUNNY   66  34  30 N24G31    30.07R
DICKINSON      SUNNY     65  26  23 NW22G29   30.11R
GARRISON         N/A     60  34  37 NW20G39   30.07R
HETTINGER ARPT SUNNY     66  28  24 NW24G32   30.14R
JAMESTOWN      MOSUNNY   60  38  43 NW21G32   30.00R
HAZEN          FAIR      64  32  29 NW23G30   30.10S
LINTON         FAIR     N/A N/A N/A NW16G30   30.07S
MANDAN         FAIR      64  34  32 NW21G30   30.08R
STANLEY        MOCLDY    61  34  36 N13G28    30.11S
TIOGA          FAIR      61  32  33 NW23G33   30.11S
WATFORD CITY   FAIR      63  34  34 N20G26    30.11R
$$

CITY           SKY/WX    TMP DP  RH WIND       PRES   REMARKS
GRAND FORKS    PTSUNNY   62  42  47 NW20G28   29.93R
GRAND FORKS AF PTSUNNY   61  40  46 N21G31    29.94R
DEVILS LAKE    CLOUDY    57  39  51 NW20      30.00R
FARGO          CLOUDY    67  40  37 NW22G30   29.92R
CAVALIER       FAIR      59  41  51 W16       29.93R
GRAFTON        CLOUDY    59  41  51 NW17G30   29.96R
GWINNER        PTCLDY    64  39  39 NW21G30   29.98R
LANGDON        CLOUDY    55  41  58 NW17G29   29.97S
ROLLA            N/A     54  39  58 NW20G25   30.01R
$$

CITY           SKY/WX    TMP DP  RH WIND       PRES   REMARKS
ABERDEEN       PTSUNNY   67  38  34 NW22G30   30.02R
MOBRIDGE       MOSUNNY   71  30  21 NW22G30   30.04R
BUFFALO          N/A     68  27  21 NW23G31   30.10R
RAPID CITY     SUNNY     69  27  20 N22G33    30.17R
GLASGOW        MOSUNNY   68  29  23 NW17G26   30.16S
SIDNEY         PTSUNNY   69  31  24 NW26G35   30.13R
WOLF POINT     PTSUNNY   70  29  21 NW21G30   30.15S
GLENDIVE       MOSUNNY   68  29  23 NW20G29   30.16S
MILES CITY     SUNNY     72  25  17 NW16      30.18S
BAKER          MOSUNNY   66  28  24 NW17G28   30.18R
$$

CITY           SKY/WX    TMP DP  RH WIND       PRES   REMARKS
BILLINGS       MOSUNNY   69  33  26 NE14      30.22F
GREAT FALLS    PTSUNNY   64  35  34 E10       30.25F
REGINA         PTSUNNY   55  36  47 N21G26    30.11R
ESTEVAN        PTSUNNY   61  36  39 NW22G29   30.07F
$$





USA.gov is the U.S. government's official web portal to all federal, state and local government web resources and services.